KPF840 EHGG-LBGO

Flight info

Callsign KPF840
Flight time N/A
Altitude 39000
Route DOBAK DCT SUQIF M105 OPWOT DCT ZUCKA DCT ARMUT DCT LAMSI DCT STEIN DCT BABIT DCT ETIDA N618 GOL N605 DELIN
Aircraft CL60/M-SBDE1E2E3FGHIJ1J4J5J7M3RWXYZ/LB1V1D1

Departure

Time 2026-05-06 12:23
Airport Groningen Airport Eelde (EHGG)

Arrival

Time N/A
Airport Gorna Oryahovitsa Airport (LBGO)
Time Latitude Longitude Altitude Speed Heading
2026-05-06 11:47 53.12785 6.58720 19 ft 0 kts 83°
2026-05-06 12:17 53.12770 6.58737 19 ft 7 kts 195°
2026-05-06 12:17 53.12740 6.58651 19 ft 10 kts 276°
2026-05-06 12:17 53.12709 6.58521 19 ft 13 kts 231°
2026-05-06 12:17 53.12644 6.58380 19 ft 16 kts 232°
2026-05-06 12:18 53.12563 6.58213 20 ft 19 kts 231°
2026-05-06 12:18 53.12477 6.58027 20 ft 17 kts 231°
2026-05-06 12:18 53.12425 6.57917 21 ft 6 kts 231°
2026-05-06 12:18 53.12407 6.57878 21 ft 5 kts 231°
2026-05-06 12:19 53.12364 6.57846 21 ft 8 kts 190°
2026-05-06 12:19 53.12297 6.57827 21 ft 11 kts 187°
2026-05-06 12:19 53.12212 6.57806 22 ft 13 kts 188°
2026-05-06 12:19 53.12126 6.57765 22 ft 10 kts 238°
2026-05-06 12:20 53.12080 6.57663 22 ft 11 kts 231°
2026-05-06 12:20 53.12030 6.57558 22 ft 11 kts 232°
2026-05-06 12:20 53.11986 6.57460 22 ft 12 kts 232°
2026-05-06 12:20 53.11926 6.57331 22 ft 15 kts 232°
2026-05-06 12:21 53.11851 6.57173 21 ft 19 kts 231°
2026-05-06 12:21 53.11762 6.56985 20 ft 19 kts 231°
2026-05-06 12:21 53.11689 6.56832 19 ft 14 kts 221°
2026-05-06 12:21 53.11591 6.56813 19 ft 12 kts 151°
2026-05-06 12:22 53.11530 6.56891 19 ft 7 kts 140°
2026-05-06 12:22 53.11523 6.56967 20 ft 8 kts 53°
2026-05-06 12:22 53.11579 6.57086 20 ft 39 kts 50°
2026-05-06 12:22 53.11949 6.57859 23 ft 126 kts 51°
2026-05-06 12:23 53.12567 6.59202 448 ft 158 kts 54°
2026-05-06 12:23 53.13232 6.60692 1357 ft 165 kts 51°
2026-05-06 12:23 53.13899 6.62094 2457 ft 164 kts 49°
2026-05-06 12:23 53.14733 6.63691 2979 ft 198 kts 48°
2026-05-06 12:24 53.15695 6.65514 3767 ft 223 kts 49°
2026-05-06 12:24 53.16539 6.67740 4774 ft 240 kts 72°
2026-05-06 12:24 53.16846 6.70522 5938 ft 252 kts 80°
2026-05-06 12:24 53.17103 6.73419 7122 ft 260 kts 80°
2026-05-06 12:25 53.17377 6.76456 8288 ft 271 kts 80°
2026-05-06 12:25 53.17657 6.79571 9439 ft 280 kts 80°
2026-05-06 12:25 53.17948 6.82811 10423 ft 296 kts 80°
2026-05-06 12:25 53.18276 6.86440 10831 ft 329 kts 80°
2026-05-06 12:26 53.18624 6.90320 11602 ft 346 kts 80°
2026-05-06 12:26 53.18983 6.94346 12549 ft 356 kts 80°
2026-05-06 12:26 53.19347 6.98448 13518 ft 363 kts 80°
2026-05-06 12:26 53.19716 7.02609 14475 ft 368 kts 80°
2026-05-06 12:27 53.20089 7.06830 15362 ft 374 kts 81°
2026-05-06 12:27 53.20470 7.11176 16233 ft 380 kts 81°
2026-05-06 12:27 53.20854 7.15563 17063 ft 385 kts 82°
2026-05-06 12:27 53.21241 7.20029 17919 ft 389 kts 83°
2026-05-06 12:28 53.21419 7.24475 18686 ft 392 kts 89°
2026-05-06 12:28 53.21466 7.29068 19436 ft 397 kts 90°
2026-05-06 12:28 53.21515 7.33674 20119 ft 402 kts 90°
2026-05-06 12:28 53.21565 7.38393 20771 ft 408 kts 90°
2026-05-06 12:29 53.21611 7.43130 21425 ft 413 kts 89°
2026-05-06 12:29 53.21656 7.47967 22097 ft 416 kts 90°
2026-05-06 12:29 53.21701 7.52802 22787 ft 419 kts 90°
2026-05-06 12:29 53.21757 7.57826 23528 ft 420 kts 88°
2026-05-06 12:30 53.22283 7.62998 24081 ft 427 kts 74°
2026-05-06 12:30 53.23205 7.67781 24734 ft 429 kts 73°
2026-05-06 12:30 53.24141 7.72604 25255 ft 434 kts 74°
2026-05-06 12:30 53.25077 7.77449 25820 ft 437 kts 74°
2026-05-06 12:31 53.26014 7.82312 26335 ft 439 kts 73°
2026-05-06 12:31 53.26940 7.87146 26915 ft 439 kts 73°
2026-05-06 12:31 53.27880 7.92072 27231 ft 445 kts 73°
2026-05-06 12:31 53.28820 7.97011 27557 ft 450 kts 73°
2026-05-06 12:32 53.29774 8.02039 27998 ft 451 kts 73°
2026-05-06 12:32 53.30708 8.07076 28416 ft 452 kts 76°
2026-05-06 12:32 53.31165 8.12256 28796 ft 451 kts 90°
2026-05-06 12:32 53.30820 8.17464 29151 ft 451 kts 105°
2026-05-06 12:33 53.29688 8.22325 29527 ft 450 kts 120°
2026-05-06 12:33 53.27844 8.26542 29982 ft 447 kts 133°
2026-05-06 12:33 53.25696 8.30291 30443 ft 446 kts 135°
2026-05-06 12:33 53.23528 8.34047 30905 ft 445 kts 134°
2026-05-06 12:34 53.21399 8.37735 31376 ft 443 kts 134°
2026-05-06 12:34 53.19246 8.41454 31822 ft 442 kts 134°
2026-05-06 12:34 53.17095 8.45163 32227 ft 441 kts 135°
2026-05-06 12:34 53.14959 8.48838 32581 ft 440 kts 135°
2026-05-06 12:35 53.12828 8.52501 32924 ft 440 kts 135°
2026-05-06 12:35 53.10667 8.56206 33245 ft 440 kts 135°
2026-05-06 12:35 53.08552 8.59828 33545 ft 441 kts 135°
2026-05-06 12:35 53.06400 8.63508 33821 ft 441 kts 135°
2026-05-06 12:36 53.04267 8.67148 34115 ft 440 kts 136°
2026-05-06 12:36 53.02144 8.70765 34389 ft 439 kts 136°
2026-05-06 12:36 52.99983 8.74443 34663 ft 438 kts 136°
2026-05-06 12:36 52.97858 8.78052 34919 ft 437 kts 136°
2026-05-06 12:37 52.95709 8.81696 35088 ft 438 kts 136°
2026-05-06 12:37 52.93570 8.85319 35281 ft 438 kts 136°
2026-05-06 12:37 52.91448 8.88905 35470 ft 439 kts 136°
2026-05-06 12:37 52.89301 8.92529 35625 ft 439 kts 136°
2026-05-06 12:38 52.87154 8.96149 35812 ft 439 kts 136°
2026-05-06 12:38 52.85016 8.99746 35973 ft 440 kts 137°
2026-05-06 12:38 52.82849 9.03386 36136 ft 440 kts 137°
2026-05-06 12:38 52.80692 9.07006 36292 ft 441 kts 137°
2026-05-06 12:39 52.78525 9.10636 36474 ft 441 kts 137°
2026-05-06 12:39 52.76363 9.14252 36616 ft 442 kts 137°
2026-05-06 12:39 52.74188 9.17886 36766 ft 442 kts 137°
2026-05-06 12:39 52.72023 9.21495 36910 ft 443 kts 137°
2026-05-06 12:40 52.69843 9.25125 37065 ft 443 kts 137°
2026-05-06 12:40 52.67685 9.28714 37225 ft 443 kts 137°
2026-05-06 12:40 52.65519 9.32310 37363 ft 443 kts 137°
2026-05-06 12:40 52.63325 9.35946 37497 ft 444 kts 137°
2026-05-06 12:41 52.61156 9.39535 37628 ft 445 kts 137°
2026-05-06 12:41 52.58974 9.43142 37762 ft 445 kts 137°
2026-05-06 12:41 52.56782 9.46759 37895 ft 445 kts 137°
2026-05-06 12:41 52.54593 9.50366 38015 ft 446 kts 137°
2026-05-06 12:42 52.52377 9.54012 38141 ft 446 kts 137°
2026-05-06 12:42 52.50180 9.57622 38269 ft 446 kts 137°
2026-05-06 12:42 52.47988 9.61217 38396 ft 446 kts 138°
2026-05-06 12:42 52.45773 9.64845 38520 ft 446 kts 138°
2026-05-06 12:43 52.41336 9.72097 38730 ft 447 kts 139°
2026-05-06 12:43 52.36903 9.79317 38801 ft 452 kts 139°
2026-05-06 12:44 52.32398 9.86632 38798 ft 457 kts 139°
2026-05-06 12:44 52.27884 9.93942 38787 ft 460 kts 139°
2026-05-06 12:45 52.23302 10.01340 38775 ft 461 kts 139°
2026-05-06 12:46 52.16439 10.12381 38776 ft 460 kts 139°
2026-05-06 12:46 52.11875 10.19692 38770 ft 460 kts 139°
2026-05-06 12:47 52.07282 10.27029 38767 ft 460 kts 139°
2026-05-06 12:47 52.02726 10.34285 38761 ft 460 kts 139°
2026-05-06 12:48 51.98124 10.41590 38766 ft 459 kts 139°
2026-05-06 12:48 51.93555 10.48821 38763 ft 460 kts 139°
2026-05-06 12:49 51.88947 10.56092 38755 ft 461 kts 139°
2026-05-06 12:49 51.84319 10.63372 38762 ft 460 kts 139°
2026-05-06 12:50 51.79741 10.70552 38754 ft 461 kts 139°
2026-05-06 12:50 51.75102 10.77806 38763 ft 460 kts 139°
2026-05-06 12:51 51.70462 10.85037 38758 ft 461 kts 140°
2026-05-06 12:51 51.65376 10.91145 38755 ft 453 kts 155°
2026-05-06 12:52 51.59677 10.95586 38755 ft 453 kts 158°
2026-05-06 12:52 51.54004 10.99931 38753 ft 453 kts 158°
2026-05-06 12:53 51.48295 11.04286 38756 ft 453 kts 158°
2026-05-06 12:53 51.42589 11.08622 38759 ft 453 kts 158°
2026-05-06 12:54 51.36898 11.12932 38763 ft 453 kts 158°
2026-05-06 12:54 51.31177 11.17249 38755 ft 453 kts 158°
2026-05-06 12:55 51.25464 11.21548 38763 ft 453 kts 158°
2026-05-06 12:55 51.19758 11.25828 38761 ft 453 kts 158°
2026-05-06 12:56 51.14044 11.30101 38753 ft 453 kts 158°
2026-05-06 12:56 51.08315 11.34372 38754 ft 453 kts 158°
2026-05-06 12:57 51.02573 11.38642 38758 ft 453 kts 158°
2026-05-06 12:57 50.96919 11.42834 38752 ft 453 kts 158°
2026-05-06 12:58 50.91249 11.47026 38754 ft 452 kts 158°
2026-05-06 12:58 50.85746 11.51083 38746 ft 452 kts 158°
2026-05-06 12:59 50.79979 11.55324 38738 ft 451 kts 158°
2026-05-06 12:59 50.74373 11.59435 38732 ft 451 kts 158°
2026-05-06 13:00 50.68677 11.63600 38744 ft 450 kts 158°
2026-05-06 13:00 50.63044 11.67709 38762 ft 449 kts 159°
2026-05-06 13:01 50.57328 11.71866 38769 ft 449 kts 159°
2026-05-06 13:01 50.51665 11.75975 38765 ft 449 kts 159°
2026-05-06 13:02 50.45952 11.80108 38781 ft 448 kts 159°
2026-05-06 13:02 50.40287 11.84196 38776 ft 449 kts 159°
2026-05-06 13:03 50.34596 11.88291 38782 ft 449 kts 159°
2026-05-06 13:03 50.28907 11.92375 38780 ft 448 kts 159°
2026-05-06 13:04 50.23217 11.96448 38778 ft 447 kts 159°
2026-05-06 13:04 50.17554 12.00491 38784 ft 446 kts 159°
2026-05-06 13:05 50.11910 12.04510 38780 ft 446 kts 159°
2026-05-06 13:05 50.06251 12.08529 38780 ft 445 kts 159°
2026-05-06 13:06 50.00611 12.12523 38779 ft 445 kts 159°
2026-05-06 13:06 49.94988 12.16496 38790 ft 444 kts 159°
2026-05-06 13:07 49.89362 12.20460 38782 ft 444 kts 160°
2026-05-06 13:07 49.83709 12.24433 38779 ft 444 kts 160°
2026-05-06 13:08 49.78064 12.28391 38767 ft 444 kts 160°
2026-05-06 13:08 49.72471 12.32530 38779 ft 446 kts 153°
2026-05-06 13:09 49.67425 12.38196 38785 ft 451 kts 146°
2026-05-06 13:09 49.62466 12.44220 38768 ft 450 kts 146°
2026-05-06 13:10 49.57536 12.50180 38765 ft 450 kts 146°
2026-05-06 13:10 49.52600 12.56124 38743 ft 451 kts 146°
2026-05-06 13:11 49.47677 12.62034 38751 ft 449 kts 146°
2026-05-06 13:11 49.42748 12.67930 38743 ft 449 kts 147°
2026-05-06 13:12 49.37768 12.73870 38757 ft 450 kts 147°
2026-05-06 13:12 49.32796 12.79783 38757 ft 449 kts 147°
2026-05-06 13:13 49.27838 12.85662 38735 ft 448 kts 147°
2026-05-06 13:13 49.22926 12.91471 38754 ft 449 kts 147°
2026-05-06 13:14 49.17995 12.97284 38757 ft 448 kts 147°
2026-05-06 13:14 49.13063 13.03085 38777 ft 448 kts 147°
2026-05-06 13:15 49.08119 13.08883 38764 ft 447 kts 147°
2026-05-06 13:15 49.03151 13.14694 38769 ft 448 kts 147°
2026-05-06 13:16 48.98213 13.20455 38757 ft 447 kts 147°
2026-05-06 13:16 48.93293 13.26180 38769 ft 447 kts 148°
2026-05-06 13:17 48.88338 13.31929 38757 ft 448 kts 148°
2026-05-06 13:17 48.83371 13.37679 38759 ft 448 kts 148°
2026-05-06 13:18 48.78384 13.43439 38756 ft 448 kts 148°
2026-05-06 13:18 48.73400 13.49179 38742 ft 448 kts 148°
2026-05-06 13:19 48.68426 13.54961 38742 ft 451 kts 145°
2026-05-06 13:19 48.64075 13.62017 38744 ft 462 kts 130°
2026-05-06 13:20 48.60814 13.70103 38739 ft 467 kts 126°
2026-05-06 13:20 48.57527 13.78650 38725 ft 467 kts 126°
2026-05-06 13:21 48.54259 13.87108 38753 ft 467 kts 126°
2026-05-06 13:21 48.50967 13.95596 38733 ft 467 kts 126°
2026-05-06 13:22 48.47657 14.04095 38737 ft 468 kts 126°
2026-05-06 13:22 48.44367 14.12511 38738 ft 467 kts 126°
2026-05-06 13:23 48.41039 14.20998 38748 ft 467 kts 126°
2026-05-06 13:23 48.37739 14.29382 38738 ft 467 kts 126°
2026-05-06 13:24 48.34401 14.37834 38742 ft 466 kts 126°
2026-05-06 13:24 48.31079 14.46218 38732 ft 466 kts 126°
2026-05-06 13:25 48.27748 14.54599 38731 ft 466 kts 126°
2026-05-06 13:25 48.24410 14.62969 38724 ft 467 kts 126°
2026-05-06 13:26 48.21067 14.71323 38739 ft 465 kts 127°
2026-05-06 13:26 48.17759 14.79572 38738 ft 465 kts 127°
2026-05-06 13:27 48.14419 14.87868 38738 ft 464 kts 127°
2026-05-06 13:27 48.11057 14.96196 38734 ft 464 kts 127°
2026-05-06 13:28 48.07722 15.04429 38735 ft 464 kts 127°
2026-05-06 13:28 48.04354 15.12718 38736 ft 463 kts 127°
2026-05-06 13:29 48.01001 15.20944 38773 ft 464 kts 127°
2026-05-06 13:29 47.97626 15.29199 38779 ft 465 kts 127°
2026-05-06 13:30 47.94234 15.37473 38774 ft 466 kts 127°
2026-05-06 13:30 47.90832 15.45745 38789 ft 467 kts 127°
2026-05-06 13:31 47.87482 15.53870 38787 ft 466 kts 127°
2026-05-06 13:31 47.84055 15.62151 38790 ft 465 kts 127°
2026-05-06 13:32 47.80652 15.70354 38800 ft 464 kts 127°
2026-05-06 13:32 47.77245 15.78537 38797 ft 464 kts 127°
2026-05-06 13:33 47.73858 15.86650 38794 ft 464 kts 127°
2026-05-06 13:33 47.70423 15.94852 38793 ft 464 kts 127°
2026-05-06 13:34 47.67002 16.02994 38786 ft 465 kts 127°
2026-05-06 13:34 47.63587 16.11101 38783 ft 466 kts 127°
2026-05-06 13:35 47.60146 16.19245 38793 ft 466 kts 127°
2026-05-06 13:35 47.56686 16.27409 38792 ft 466 kts 127°
2026-05-06 13:36 47.53223 16.35555 38804 ft 467 kts 127°
2026-05-06 13:36 47.49762 16.43673 38790 ft 467 kts 127°
2026-05-06 13:37 47.46295 16.51782 38816 ft 467 kts 127°
2026-05-06 13:37 47.42747 16.59858 38795 ft 464 kts 132°
2026-05-06 13:38 47.38486 16.66988 38808 ft 460 kts 138°
2026-05-06 13:38 47.34166 16.73982 38817 ft 460 kts 138°
2026-05-06 13:39 47.29852 16.80946 38817 ft 462 kts 138°
2026-05-06 13:39 47.25659 16.88140 38818 ft 468 kts 129°
2026-05-06 13:40 47.22835 16.96916 38822 ft 482 kts 110°
2026-05-06 13:40 47.21982 17.06796 38832 ft 491 kts 90°
2026-05-06 13:41 47.23237 17.16717 38845 ft 496 kts 71°
2026-05-06 13:41 47.26482 17.25653 38837 ft 497 kts 52°
2026-05-06 13:41 47.28802 17.29407 38854 ft 494 kts 37°
2026-05-06 13:42 47.31660 17.32037 38842 ft 487 kts 19°
2026-05-06 13:42 47.34942 17.33293 38847 ft 476 kts 359°
2026-05-06 13:42 47.38210 17.33245 38827 ft 471 kts 350°
2026-05-06 13:43 47.44780 17.32561 38826 ft 474 kts 350°
2026-05-06 13:43 47.51377 17.31927 38827 ft 476 kts 351°
2026-05-06 13:44 47.57732 17.30048 38835 ft 454 kts 326°
2026-05-06 13:44 47.63098 17.25171 38806 ft 450 kts 321°
2026-05-06 13:45 47.68391 17.20157 38801 ft 451 kts 321°
2026-05-06 13:45 47.72889 17.13956 38795 ft 434 kts 300°
2026-05-06 13:45 47.74395 17.10137 38788 ft 427 kts 289°
2026-05-06 13:46 47.76029 17.01811 38787 ft 420 kts 277°
2026-05-06 13:46 47.77259 16.93230 38787 ft 421 kts 278°
2026-05-06 13:47 47.78476 16.84729 38777 ft 421 kts 278°
2026-05-06 13:47 47.79697 16.76166 38779 ft 422 kts 278°
2026-05-06 13:48 47.80908 16.67624 38769 ft 423 kts 277°
2026-05-06 13:48 47.82126 16.58990 38768 ft 424 kts 278°
2026-05-06 13:49 47.83332 16.50402 38766 ft 424 kts 277°
2026-05-06 13:49 47.84529 16.41824 38760 ft 425 kts 278°
2026-05-06 13:50 47.85727 16.33194 38751 ft 425 kts 277°
2026-05-06 13:50 47.86925 16.24520 38733 ft 425 kts 277°
2026-05-06 13:51 47.88105 16.15926 38757 ft 423 kts 277°
2026-05-06 13:51 47.89276 16.07344 38750 ft 421 kts 277°
2026-05-06 13:52 47.90437 15.98787 38749 ft 422 kts 277°
2026-05-06 13:52 47.91598 15.90176 38764 ft 422 kts 277°
2026-05-06 13:53 47.92742 15.81645 38772 ft 422 kts 276°
2026-05-06 13:53 47.93898 15.72979 38751 ft 422 kts 277°
2026-05-06 13:54 47.95042 15.64341 38699 ft 423 kts 276°
2026-05-06 13:54 47.95607 15.60049 38232 ft 426 kts 277°
2026-05-06 13:54 47.96172 15.55761 37666 ft 420 kts 276°
2026-05-06 13:55 47.96737 15.51470 37099 ft 413 kts 276°
2026-05-06 13:55 47.97282 15.47306 36583 ft 408 kts 276°
2026-05-06 13:55 47.97823 15.43157 36130 ft 407 kts 276°
2026-05-06 13:55 47.98359 15.39033 35596 ft 406 kts 276°
2026-05-06 13:56 47.98882 15.35002 35067 ft 403 kts 275°
2026-05-06 13:56 47.99424 15.30812 34505 ft 401 kts 275°
2026-05-06 13:56 47.99949 15.26741 33982 ft 399 kts 275°
2026-05-06 13:56 48.00476 15.22623 33437 ft 400 kts 275°
2026-05-06 13:57 48.01002 15.18504 32924 ft 402 kts 275°
2026-05-06 13:57 48.01526 15.14390 32363 ft 404 kts 275°
2026-05-06 13:57 48.02048 15.10284 31810 ft 407 kts 275°
2026-05-06 13:57 48.02576 15.06113 31263 ft 410 kts 275°
2026-05-06 13:58 48.03112 15.01871 30710 ft 413 kts 276°
2026-05-06 13:58 48.03646 14.97626 30120 ft 416 kts 276°
2026-05-06 13:58 48.04176 14.93406 29600 ft 419 kts 276°
2026-05-06 13:58 48.04713 14.89115 29010 ft 421 kts 276°
2026-05-06 13:59 48.05249 14.84812 28457 ft 421 kts 275°
2026-05-06 13:59 48.05487 14.80490 27888 ft 414 kts 267°
2026-05-06 13:59 48.05514 14.76154 27344 ft 411 kts 267°
2026-05-06 13:59 48.05545 14.71935 26790 ft 410 kts 267°
2026-05-06 14:00 48.05576 14.67664 26245 ft 407 kts 266°
2026-05-06 14:00 48.05605 14.63413 25711 ft 405 kts 267°
2026-05-06 14:00 48.05633 14.59220 25175 ft 403 kts 266°
2026-05-06 14:00 48.05660 14.55076 24637 ft 400 kts 266°
2026-05-06 14:01 48.05686 14.50925 24118 ft 397 kts 266°
2026-05-06 14:01 48.05709 14.46806 23593 ft 395 kts 266°
2026-05-06 14:01 48.05732 14.42698 23067 ft 392 kts 266°
2026-05-06 14:01 48.05753 14.38662 22552 ft 389 kts 266°
2026-05-06 14:02 48.05773 14.34724 22051 ft 386 kts 266°
2026-05-06 14:02 48.05792 14.30607 21523 ft 381 kts 266°
2026-05-06 14:02 48.05810 14.26654 21022 ft 377 kts 266°
2026-05-06 14:02 48.05826 14.22729 20495 ft 372 kts 266°
2026-05-06 14:03 48.05840 14.18901 20005 ft 367 kts 265°
2026-05-06 14:03 48.05853 14.15105 19516 ft 364 kts 265°
2026-05-06 14:03 48.05865 14.11333 19049 ft 359 kts 265°
2026-05-06 14:03 48.05875 14.07612 18553 ft 355 kts 266°
2026-05-06 14:04 48.05885 14.03918 18087 ft 350 kts 265°
2026-05-06 14:04 48.05893 14.00269 17622 ft 345 kts 266°
2026-05-06 14:04 48.05899 13.96722 17169 ft 341 kts 266°
2026-05-06 14:04 48.05905 13.93184 16713 ft 337 kts 266°
2026-05-06 14:05 48.05909 13.89691 16270 ft 333 kts 266°
2026-05-06 14:05 48.05913 13.86263 15827 ft 329 kts 266°
2026-05-06 14:05 48.05915 13.82839 15399 ft 324 kts 266°
2026-05-06 14:05 48.05916 13.79467 14949 ft 320 kts 266°
2026-05-06 14:06 48.05917 13.76182 14532 ft 316 kts 266°
2026-05-06 14:06 48.05916 13.72930 14117 ft 312 kts 267°
2026-05-06 14:06 48.05914 13.69700 13719 ft 308 kts 267°
2026-05-06 14:06 48.05912 13.66478 13310 ft 304 kts 267°
2026-05-06 14:07 48.05909 13.63342 12911 ft 301 kts 267°
2026-05-06 14:07 48.05904 13.60234 12520 ft 299 kts 267°
2026-05-06 14:07 48.05899 13.57098 12121 ft 296 kts 267°
2026-05-06 14:07 48.05856 13.54013 11727 ft 292 kts 262°
2026-05-06 14:08 48.05629 13.51036 11339 ft 288 kts 260°
2026-05-06 14:08 48.05378 13.48035 10946 ft 285 kts 260°
2026-05-06 14:08 48.05136 13.45116 10660 ft 280 kts 260°
2026-05-06 14:08 48.04902 13.42307 10432 ft 282 kts 260°
2026-05-06 14:09 48.04656 13.39376 10079 ft 281 kts 260°
2026-05-06 14:09 48.04415 13.36501 9730 ft 278 kts 259°
2026-05-06 14:09 48.04182 13.33731 9379 ft 276 kts 259°
2026-05-06 14:09 48.03943 13.30907 9025 ft 273 kts 259°
2026-05-06 14:10 48.03703 13.28074 8653 ft 271 kts 259°
2026-05-06 14:10 48.03468 13.25303 8295 ft 269 kts 259°
2026-05-06 14:10 48.03231 13.22531 7932 ft 267 kts 260°
2026-05-06 14:10 48.02997 13.19791 7578 ft 265 kts 260°
2026-05-06 14:11 48.02763 13.17064 7222 ft 263 kts 261°
2026-05-06 14:11 48.02527 13.14338 6875 ft 261 kts 261°
2026-05-06 14:11 48.02164 13.11724 6522 ft 257 kts 245°
2026-05-06 14:11 48.01292 13.09421 6191 ft 254 kts 237°
2026-05-06 14:12 48.00356 13.07171 5843 ft 253 kts 237°
2026-05-06 14:12 47.99436 13.04939 5515 ft 251 kts 238°
2026-05-06 14:12 47.98344 13.02978 5180 ft 247 kts 215°
2026-05-06 14:12 47.96783 13.02018 4993 ft 233 kts 184°
2026-05-06 14:13 47.95253 13.02138 4998 ft 216 kts 167°
2026-05-06 14:13 47.93800 13.02587 4998 ft 210 kts 166°
2026-05-06 14:13 47.92386 13.03024 4990 ft 202 kts 166°
2026-05-06 14:13 47.91025 13.03440 4983 ft 197 kts 166°
2026-05-06 14:14 47.89690 13.03849 4983 ft 192 kts 166°
2026-05-06 14:14 47.88378 13.04251 4993 ft 187 kts 166°
2026-05-06 14:14 47.87107 13.04640 4815 ft 188 kts 166°
2026-05-06 14:14 47.85860 13.05020 4574 ft 175 kts 166°
2026-05-06 14:15 47.84683 13.05380 4376 ft 174 kts 166°
2026-05-06 14:15 47.83495 13.05743 4155 ft 171 kts 166°
2026-05-06 14:15 47.82318 13.06103 3923 ft 171 kts 166°
2026-05-06 14:15 47.81160 13.06456 3701 ft 168 kts 166°
2026-05-06 14:16 47.80040 13.06796 3492 ft 166 kts 166°
2026-05-06 14:16 47.78905 13.07143 3263 ft 164 kts 166°
2026-05-06 14:16 47.77798 13.07481 3048 ft 164 kts 165°
2026-05-06 14:16 47.76652 13.07612 2822 ft 165 kts 188°
2026-05-06 14:17 47.75653 13.06809 2619 ft 164 kts 227°
2026-05-06 14:17 47.75164 13.05313 2415 ft 164 kts 262°
2026-05-06 14:17 47.75331 13.03693 2190 ft 157 kts 298°
2026-05-06 14:17 47.76051 13.02544 1988 ft 149 kts 330°
2026-05-06 14:18 47.77005 13.01899 1816 ft 149 kts 338°
2026-05-06 14:18 47.77945 13.01266 1632 ft 146 kts 339°
2026-05-06 14:18 47.78865 13.00687 1428 ft 133 kts 339°
2026-05-06 14:18 47.79620 13.00207 1419 ft 92 kts 336°
2026-05-06 14:19 47.80032 12.99946 1418 ft 44 kts 336°
2026-05-06 14:19 47.80221 12.99827 1418 ft 20 kts 335°
2026-05-06 14:19 47.80276 12.99713 1418 ft 15 kts 265°
2026-05-06 14:19 47.80231 12.99597 1418 ft 13 kts 207°
2026-05-06 14:20 47.80138 12.99614 1418 ft 13 kts 156°
2026-05-06 14:20 47.80040 12.99678 1418 ft 17 kts 157°
2026-05-06 14:20 47.79925 12.99750 1418 ft 16 kts 156°
2026-05-06 14:20 47.79828 12.99812 1418 ft 12 kts 156°
2026-05-06 14:21 47.79764 12.99770 1418 ft 11 kts 245°
2026-05-06 14:21 47.79721 12.99731 1418 ft 10 kts 156°
2026-05-06 14:21 47.79646 12.99780 1418 ft 11 kts 156°
2026-05-06 14:21 47.79586 12.99819 1418 ft 9 kts 156°
2026-05-06 14:22 47.79565 12.99863 1418 ft 5 kts 36°
2026-05-06 14:22 47.79591 12.99875 1418 ft 1 kts 15°
2026-05-06 14:22 47.79592 12.99875 1418 ft 0 kts 15°